Zurück zum Katalog

JITIANXING A-05 XING

AktivWissenschaftSSO
NORAD 62733·PAYLOAD·🇨🇳 China
Dieser Satellitenname wurde noch nicht durch offizielle Quellen bestätigt.

Gestartet Jan 20, 2025 von Jiuquan Satellite Launch Center

Loading…

Nächste Überflüge (nächste 24 Stunden)

TLE

AktuellSource: Space-Track

Epoche: Sep 14, 2026, 22:22 UTC

1 62733U 25013E   26257.93203153  .00002843  00000-0  17136-3 0  9998
2 62733  97.6649  67.4332 0009894  73.2432 286.9883 15.11561759 90778

Verfolge JITIANXING A-05 XING in Echtzeit mit AllMySat

Download on the App Store